Weather History for KPMP - May, 2014

Change the Weather History Date:

Saturday, May 3, 2014

  Actual Average (KFLL) Record (KFLL)
Temperature  
Mean Temperature 80 °F 78 °F  
Max Temperature 88 °F 85 °F 91 °F (1920)
Min Temperature 72 °F 72 °F 55 °F (1925)
Degree Days  
Heating Degree Days 0 0  
Month to date heating degree days 0  
Since 1 July heating degree days 112  
Cooling Degree Days 14 13  
Month to date cooling degree days 39  
Year to date cooling degree days 986  
Growing Degree Days 30 (Base 50)    
Moisture  
Dew Point 70 °F    
Average Humidity 84    
Maximum Humidity 100    
Minimum Humidity 55    
Precipitation  
Precipitation 1.38 in 0.06 in 4.54 in (1963)
Month to date precipitation 0.19  
Year to date precipitation 13.03  
Snow  
Snow 0.00 in - - ()
Month to date snowfall  
Since 1 July snowfall  
Snow Depth -    
Sea Level Pressure  
Sea Level Pressure 29.97 in    
Wind  
Wind Speed 6 mph (SE)    
Max Wind Speed 21 mph    
Max Gust Speed 34 mph    
Visibility 6 miles    
Events Fog , Rain , Thunderstorm    
T = Trace of Precipitation, MM = Missing Value Source: NWS Daily Summary

Daily Weather History Graph

Daily Weather History Graph

Search for Another Location

Airport or City:

Trip Planner

Search our weather history database for the weather conditions in past years. The results will help you decide how hot, cold, wet, or windy it might be!

Date:

Astronomy

May. 03, 2014 Rise Set
Actual Time 6:41 AM EDT 7:53 PM EDT
Civil Twilight 6:17 AM EDT 8:17 PM EDT
Nautical Twilight 5:48 AM EDT 8:46 PM EDT
Astronomical Twilight 5:18 AM EDT 9:16 PM EDT
Moon 10:14 AM EDT 11:55 PM EDT
Length of Visible Light 14h 00m
Length of Day
13h 11m
Waxing Crescent, 19% of the Moon is Illuminated
May 3
Waxing Crescent
May 6
First Quarter
May 14
Full
May 21
Last Quarter
May 28
New

Hourly Weather History & Observations

Time (EDT) Temp. Heat Index Dew Point Humidity Pressure Visibility Wind Dir Wind Speed Gust Speed Precip Events Conditions
12:53 AM 77.0 °F - 69.1 °F 76% 29.98 in 10.0 mi North 3.5 mph - N/A   Clear
1:53 AM 75.0 °F - 69.1 °F 82% 29.96 in 10.0 mi Calm Calm - N/A   Clear
2:53 AM 77.0 °F - 70.0 °F 79% 29.94 in 10.0 mi Calm Calm - N/A   Clear
3:53 AM 75.9 °F - 70.0 °F 82% 29.94 in 10.0 mi Calm Calm - N/A   Clear
4:53 AM 75.9 °F - 71.1 °F 85% 29.92 in 10.0 mi SE 3.5 mph - N/A   Clear
6:53 AM 78.1 °F - 72.0 °F 81% 29.93 in 10.0 mi SSE 5.8 mph - N/A   Clear
7:53 AM 80.1 °F 83.8 °F 72.0 °F 76% 29.95 in 10.0 mi SSW 4.6 mph - N/A   Clear
8:53 AM 81.0 °F 85.2 °F 72.0 °F 74% 29.94 in 10.0 mi SSW 6.9 mph - N/A   Mostly Cloudy
9:53 AM 84.0 °F 90.2 °F 73.0 °F 69% 29.96 in 10.0 mi SW 8.1 mph - N/A   Mostly Cloudy
10:53 AM 84.0 °F 87.0 °F 68.0 °F 58% 29.97 in 10.0 mi South 9.2 mph - N/A   Mostly Cloudy
11:53 AM 84.9 °F 88.8 °F 69.1 °F 59% 29.97 in 10.0 mi South 9.2 mph - N/A   Mostly Cloudy
12:53 PM 87.1 °F 91.3 °F 69.1 °F 55% 29.96 in 10.0 mi SW 9.2 mph - N/A   Mostly Cloudy
1:53 PM 86.0 °F 92.2 °F 72.0 °F 63% 29.95 in 10.0 mi SE 11.5 mph - N/A   Mostly Cloudy
2:53 PM 84.0 °F 89.6 °F 72.0 °F 67% 29.95 in 10.0 mi SSE 11.5 mph - N/A   Mostly Cloudy
3:03 PM 81.0 °F 85.2 °F 72.0 °F 74% 29.96 in 1.8 mi South 17.3 mph 32.2 mph 0.06 in Rain Rain
3:07 PM 77.0 °F - 71.1 °F 82% 29.96 in 1.0 mi South 16.1 mph 32.2 mph 0.11 in Rain , Thunderstorm Heavy Rain
3:09 PM 75.9 °F - 70.0 °F 82% 29.96 in 0.5 mi SSW 20.7 mph 34.5 mph 0.19 in Rain , Thunderstorm Heavy Rain
3:16 PM 75.0 °F - 68.0 °F 79% 29.96 in 0.2 mi NW 19.6 mph 34.5 mph 0.40 in Rain , Thunderstorm Heavy Thunderstorms and Rain
3:25 PM 73.9 °F - 66.9 °F 79% 29.98 in 1.0 mi North 17.3 mph 21.9 mph 0.56 in Rain , Thunderstorm Thunderstorms and Rain
3:27 PM 73.9 °F - 66.9 °F 79% 29.98 in 0.8 mi NNE 10.4 mph 21.9 mph 0.65 in Rain , Thunderstorm Heavy Thunderstorms and Rain
3:34 PM 73.9 °F - 68.0 °F 82% 29.96 in 0.5 mi East 6.9 mph - 0.81 in Rain , Thunderstorm Heavy Thunderstorms and Rain
3:39 PM 73.9 °F - 69.1 °F 85% 29.97 in 1.0 mi SSE 8.1 mph - 0.82 in Rain , Thunderstorm Thunderstorms and Rain
3:43 PM 73.0 °F - 69.1 °F 87% 29.96 in 3.0 mi East 5.8 mph - 0.82 in Rain , Thunderstorm Light Thunderstorms and Rain
3:50 PM 73.4 °F - 69.8 °F 88% 29.96 in 10.0 mi Variable 4.6 mph - 0.82 in Rain , Thunderstorm Light Thunderstorms and Rain
4:30 PM 73.9 °F - 70.0 °F 87% 29.96 in 4.0 mi East 6.9 mph - 0.02 in Rain , Thunderstorm Light Thunderstorms and Rain
4:45 PM 73.0 °F - 70.0 °F 90% 29.98 in 1.8 mi SSE 15.0 mph - 0.09 in Rain , Thunderstorm Heavy Thunderstorms and Rain
4:50 PM 73.4 °F - 69.8 °F 88% 29.98 in 0.5 mi South 11.5 mph - 0.31 in Fog , Rain , Thunderstorm Heavy Thunderstorms and Rain
4:53 PM 73.0 °F - 70.0 °F 90% 29.98 in 0.5 mi SSE 11.5 mph - 0.44 in Fog , Rain , Thunderstorm Heavy Thunderstorms and Rain
4:57 PM 72.0 °F - 70.0 °F 93% 29.99 in 0.2 mi NNW 6.9 mph - 0.11 in Fog , Rain Heavy Rain
5:32 PM 72.0 °F - 71.1 °F 97% 29.97 in 1.0 mi ENE 5.8 mph - 0.91 in Rain Light Rain
5:35 PM 72.0 °F - 71.1 °F 97% 29.97 in 3.0 mi NE 5.8 mph - 0.91 in Rain Light Rain
5:53 PM 72.0 °F - 71.1 °F 97% 29.99 in 5.0 mi ENE 3.5 mph - 0.91 in Rain , Thunderstorm Light Rain
6:03 PM 72.0 °F - 71.1 °F 97% 29.98 in 3.0 mi SE 5.8 mph - 0.02 in Rain Light Rain
6:15 PM 72.0 °F - 72.0 °F 100% 29.97 in 4.0 mi East 4.6 mph - 0.03 in Rain Light Rain
6:29 PM 72.0 °F - 72.0 °F 100% 29.97 in 6.0 mi ENE 4.6 mph - 0.03 in   Scattered Clouds
6:53 PM 72.0 °F - 72.0 °F 100% 29.96 in 7.0 mi ENE 3.5 mph - 0.03 in   Overcast
7:53 PM 72.0 °F - 72.0 °F 100% 29.96 in 8.0 mi Calm Calm - N/A   Overcast
8:53 PM 73.0 °F - 72.0 °F 96% 29.99 in 9.0 mi West 4.6 mph - 0.00 in Rain Light Rain
9:53 PM 72.0 °F - 72.0 °F 100% 29.99 in 8.0 mi Calm Calm - 0.00 in   Clear
10:53 PM 72.0 °F - 72.0 °F 100% 30.01 in 8.0 mi Calm Calm - 0.00 in   Clear
11:53 PM 72.0 °F - 72.0 °F 100% 30.01 in 9.0 mi Calm Calm - N/A   Clear